Regional Weather Roundup
Issued by NWS

Home | Current Version | Previous Version | Graphics & Text | Print | Product List | Glossary On
Versions: 1 2 3 4 5 6 7 8 9 10 11 12 13 14 15 16 17 18 19 20 21 22 23 24 25 26 27 28 29 30 31 32 33 34 35 36 37 38 39 40 41 42 43 44 45 46 47 48 49 50
000
ASUS45 KSLC 212310
RWRUT

UTAH REGIONAL WEATHER ROUNDUP
NATIONAL WEATHER SERVICE SALT LAKE CITY UT
400 PM MST SUN DEC 21 2014

UTZ001>011-023>025-220000-

NORTHERN UTAH

CITY           SKY/WX    TMP DP  RH WIND       PRES   REMARKS
BRIGHAM CITY   CLOUDY    45  41  86 CALM      29.89S
HILL AFB       CLOUDY    44  43  96 SW9       29.91S
LOGAN          LGT RAIN  46  41  82 W9        29.88R
OGDEN          CLOUDY    45  41  86 S6        29.90R
PROVO AIRPORT  CLOUDY    41  37  87 VRB3      29.97R
SALT LAKE CITY CLOUDY    43  39  86 SE7       29.93R
VERNAL         CLOUDY    35  28  75 CALM      29.82S
WENDOVER       MOSUNNY   55  39  54 NW20      29.95R
HEBER CITY     MIX PCPN  36  34  93 SW3       29.91R
WEST JORDAN    CLOUDY    41  41 100 S8        29.94R

$$

UTZ012>022-026-027-220000-

SOUTHERN/CENTRAL UTAH

CITY           SKY/WX    TMP DP  RH WIND       PRES   REMARKS
BLANDING       MOCLDY    38  33  81 S3        30.05F
BRYCE CANYON   PTSUNNY   46  32  58 N6        30.07R
CEDAR CITY     MOSUNNY   54  35  48 SW13      30.03S
DELTA          CLOUDY    49  35  59 CALM      29.98R
MILFORD        PTSUNNY   56  36  47 S14       30.00R
MOAB/CYNLANDS  CLEAR     42  34  73 W9        29.92F
PRICE          CLOUDY    35  29  78 CALM      29.91F
ST GEORGE      CLOUDY    52  36  54 CALM      30.05F
KANAB          MOSUNNY   48  36  61 S9        30.08S

$$

REGIONAL REPORTS     COLORADO/ARIZONA

CITY           SKY/WX    TMP DP  RH WIND       PRES   REMARKS
CRAIG, CO      CLOUDY    38  31  76 SW25G35   29.73S WCI  27
GRAND JUNCTION CLOUDY    33  31  92 CALM      29.93S
RIFLE          CLOUDY    35  29  78 W14       29.86F WCI  26
MONTROSE       CLOUDY    34  31  88 CALM      29.92F
CORTEZ         CLEAR     41  29  62 NW10      29.98S
PAGE, AZ       PTSUNNY   45  31  58 SE5       30.00F
GRAND CANYON   PTSUNNY   46  33  60 VRB6      30.11S
KINGMAN        PTSUNNY   55  36  48 CALM      30.09R
FLAGSTAFF      MOSUNNY   49  32  52 NW9G20    30.11R

$$

REGIONAL REPORTS    NEVADA/IDAHO/WYOMING

CITY           SKY/WX    TMP DP  RH WIND       PRES   REMARKS
LAS VEGAS, NV  PTSUNNY   56  38  50 CALM      30.05R
ELY            LGT RAIN  47  39  74 E5        30.13R
ELKO           CLOUDY    49  43  80 SW14      30.05R
POCATELLO, ID  MOCLDY    45  40  82 W23G31    29.82R
BURLEY         CLOUDY    43  38  82 W18G32    29.89R
EVANSTON, WY   LGT RAIN  36  34  92 SW17G26   29.84R WCI  26
ROCK SPRINGS   LGT RAIN  36  31  82 W33G51    29.69R WCI  22
KEMMERER       LGT SNOW  34  32  93 W29G39    29.75R WCI  20

$$



USA.gov is the U.S. government's official web portal to all federal, state and local government web resources and services.